Carlisle Airport, United Kingdom

6:36 PM BST on August 20, 2017 (GMT +0100)
Carlisle

Weather History for EGNC - March, 2013

Change the Weather History Date:

Wednesday, March 27, 2013

  Actual Average Record
Temperature  
Mean Temperature 34 °F -  
Max Temperature 37 °F 52 °F 68 °F (2012)
Min Temperature 32 °F 44 °F 32 °F (2013)
Degree Days  
Heating Degree Days 30    
Moisture  
Dew Point 29 °F    
Average Humidity 79    
Maximum Humidity 93    
Minimum Humidity 65    
Precipitation  
Precipitation 0.00 in - - ()
Sea Level Pressure  
Sea Level Pressure 30.04 in    
Wind  
Wind Speed 9 mph ()    
Max Wind Speed 16 mph    
Max Gust Speed -    
Visibility 5.8 miles    
Events Snow    
Averages and records for this station are not official NWS values.
T = Trace of Precipitation, MM = Missing Value Source: Averaged Metar Reports

Daily Weather History Graph

Daily Weather History Graph

Search for Another Location

Airport or City:

Trip Planner

Search our weather history database for the weather conditions in past years. The results will help you decide how hot, cold, wet, or windy it might be!

Date:

Astronomy

Mar. 27, 2013 Rise Set
Actual Time 5:56 AM GMT 6:39 PM GMT
Civil Twilight 5:19 AM GMT 7:15 PM GMT
Nautical Twilight 4:35 AM GMT 8:00 PM GMT
Astronomical Twilight 3:48 AM GMT 8:47 PM GMT
Moon 7:18 PM GMT (3/27) 5:33 AM GMT (3/27)
Length of Visible Light 13h 56m
Length of Day
12h 43m
Full, 100% of the Moon is Illuminated
Mar 27
Full
Apr 3
Last Quarter
Apr 10
New
Apr 18
First Quarter
Apr 25
Full

Hourly Weather History & Observations

Time (GMT) Temp. Windchill Dew Point Humidity Pressure Visibility Wind Dir Wind Speed Gust Speed Precip Events Conditions
8:50 AM 32.0 °F 24.2 °F 30.2 °F 93% 30.06 in 3.1 mi ENE 9.2 mph - N/A Snow Snow
9:20 AM 32.0 °F 23.6 °F 30.2 °F 93% 30.06 in 6.2 mi NE 10.4 mph - N/A Snow Light Snow
9:50 AM 32.0 °F 25.6 °F 30.2 °F 93% 30.06 in 2.5 mi ENE 6.9 mph - N/A Snow Light Snow
10:20 AM 33.8 °F 26.4 °F 30.2 °F 87% 30.06 in 6.2 mi NE 9.2 mph - N/A   Scattered Clouds
10:50 AM 35.6 °F 27.5 °F 30.2 °F 81% 30.04 in 6.2 mi NE 11.5 mph - N/A Snow Light Snow
11:20 AM 37.4 °F 30.3 °F 30.2 °F 75% 30.04 in 6.2 mi ENE 10.4 mph - N/A Snow Light Snow
11:50 AM 35.6 °F 27.1 °F 28.4 °F 75% 30.04 in 6.2 mi NE 12.7 mph - N/A   Scattered Clouds
12:20 PM 37.4 °F 28.9 °F 26.6 °F 65% 30.04 in 6.2 mi ENE 13.8 mph - N/A   Scattered Clouds
12:50 PM 37.4 °F 28.2 °F 28.4 °F 70% 30.04 in 6.2 mi East 16.1 mph - N/A   Scattered Clouds
1:20 PM 33.8 °F 24.3 °F 28.4 °F 81% 30.04 in 6.2 mi ENE 13.8 mph - N/A Snow Light Snow
1:50 PM 33.8 °F 24.3 °F 30.2 °F 87% 30.04 in 6.2 mi ENE 13.8 mph - N/A Snow Light Snow
2:20 PM 35.6 °F 28.0 °F 30.2 °F 81% 30.04 in 6.2 mi ENE 10.4 mph - N/A Snow Light Snow
2:50 PM 35.6 °F 29.9 °F 30.2 °F 81% 30.04 in 6.2 mi NE 6.9 mph - N/A Snow Light Snow
3:20 PM 35.6 °F 27.5 °F 30.2 °F 81% 30.04 in 6.2 mi NE 11.5 mph - N/A   Scattered Clouds
3:50 PM 35.6 °F 26.6 °F 26.6 °F 70% 30.04 in 6.2 mi ENE 13.8 mph - N/A   Scattered Clouds
4:20 PM 35.6 °F 27.5 °F 26.6 °F 70% 30.04 in 6.2 mi ENE 11.5 mph - N/A   Scattered Clouds
4:50 PM 35.6 °F 28.6 °F 26.6 °F 70% 30.04 in 6.2 mi East 9.2 mph - N/A   Scattered Clouds
5:20 PM 35.6 °F 26.6 °F 26.6 °F 70% 30.04 in 6.2 mi East 13.8 mph - N/A   Partly Cloudy
5:50 PM 35.6 °F 27.5 °F 26.6 °F 70% 30.04 in 6.2 mi East 11.5 mph - N/A   Partly Cloudy